OpenBCM V1.08-5-g2f4a (Linux)

Packet Radio Mailbox

IZ3LSV

[San Dona' di P. JN]

 Login: GUEST





  
CX2SA  > KEP      28.12.11 04:09l 86 Lines 3577 Bytes #999 (0) @ ARL
BID : ARLK101
Read: GUEST
Subj: ARLK101 Keplerian data
Path: IZ3LSV<I0OJJ<UA6ADV<CX2SA
Sent: 111228/0257Z @:CX2SA.SAL.URY.SA #:44904 [Salto] FBB7.00e $:ARLK101
From: CX2SA@CX2SA.SAL.URY.SA
To  : KEP@ARL


ZCZC SK02
QST de W1AW
Keplerian Bulletin 101  ARLK101
From ARRL Headquarters
Newington, CT  December 27, 2011
To all radio amateurs

SB KEP ARL ARLK101
ARLK101 Keplerian data

Special thanks to AMSAT-NA (AMSAT.ORG) for the following Keplerian
data.

Decode 2-line elsets with the following key:
1 AAAAAU 00  0  0 BBBBB.BBBBBBBB  .CCCCCCCC  00000-0  00000-0 0  DDDZ
2 AAAAA EEE.EEEE FFF.FFFF GGGGGGG HHH.HHHH III.IIII JJ.JJJJJJJJKKKKKZ
KEY: A-CATALOGNUM B-EPOCHTIME C-DECAY D-ELSETNUM E-INCLINATION F-RAAN
G-ECCENTRICITY H-ARGPERIGEE I-MNANOM J-MNMOTION K-ORBITNUM Z-CHECKSUM

AO-07
1 07530U 74089B   11360.56807327 -.00000027 +00000-0 +10000-3 0 02652
2 07530 101.3968 359.5361 0011839 263.0252 096.9478 12.53586588698297
AO-16
1 20439U 90005D   11360.94683255 +.00000179 +00000-0 +82471-4 0 03790
2 20439 098.4097 304.3645 0010477 317.0722 042.9639 14.32000193145201
AO-27
1 22825U 93061C   11360.79235430 +.00000114 +00000-0 +61695-4 0 09944
2 22825 098.5557 301.4903 0009259 070.8541 289.3648 14.29414709951703
GO-32
1 25397U 98043D   11360.82399707 +.00000076 +00000-0 +51628-4 0 06655
2 25397 098.3431 343.2538 0002152 078.7508 281.3910 14.23248951699365
ISS
1 25544U 98067A   11361.93689693  .00018195  00000-0  23506-3 0  7097
2 25544 051.6444 266.2369 0024226 212.7963 244.9845 15.58682085751159
NO-44
1 26931U 01043C   11360.76997292 -.00000059 +00000-0 +92761-5 0 09312
2 26931 067.0503 207.2715 0005046 274.4023 085.6473 14.29741689534450
SO-50
1 27607U 02058C   11360.75488525 +.00000971 +00000-0 +16731-3 0 06492
2 27607 064.5583 102.3798 0084329 282.0886 077.0772 14.72120199484434
CO-55
1 27844U 03031E   11360.56342792  .00000332  00000-0  17362-3 0  2736
2 27844 098.7049 006.4695 0010221 007.4305 352.7031 14.20933889440230
RS-22
1 27939U 03042A   11361.61908045  .00000646  00000-0  13199-3 0  9378
2 27939 097.8228 206.1510 0014603 092.1770 268.1116 14.63844040440639
AO-51
1 28375U 04025K   11360.96375332 +.00000377 +00000-0 +12585-3 0 01550
2 28375 098.1225 329.5403 0082807 205.4174 154.2818 14.40877742393826
VO-52
1 28650U 05017B   11360.75849079  .00001507  00000-0  19268-3 0  9839
2 28650 097.6189 035.0550 0025486 250.1253 109.7164 14.82566774359278
CO-58
1 28895U 05043F   11360.61767091 +.00000964 +00000-0 +20790-3 0 00599
2 28895 097.9396 229.2766 0017499 340.3595 019.7002 14.60412850328328
CO-65
1 32785U 08021C   11360.74718345 +.00001885 +00000-0 +24063-3 0 01909
2 32785 097.8272 060.7429 0013717 268.8679 091.0989 14.82560979198066
COMPASS 1
1 32787U 08021E   11360.74256171 +.00002680 +00000-0 +33321-3 0 01816
2 32787 097.8267 060.7976 0014285 267.8699 092.0883 14.83311434198099
DO-64
1 32789U 08021G   11361.74887603  .00004520  00000-0  54044-3 0  1875
2 32789 097.8367 063.5211 0014136 262.1715 097.7931 14.84600761198289
RS-30
1 32953U 08025A   11361.64239149  .00000010  00000-0  00000+0 0  3801
2 32953 082.5014 042.4393 0018020 328.2564 031.7429 12.43018958163120
KKS-1
1 33499U 09002H   11360.90993047 +.00001085 +00000-0 +18314-3 0 06329
2 33499 098.0991 111.5592 0009247 263.6998 096.3153 14.71431998156944
SO-67
1 35870U 09049F   11361.73113758  .00004685  00000-0  20573-3 0  5339
2 35870 097.2570 038.5014 0003676 068.3140 065.9578 15.22394149126368
HO-68
1 36122U 09072B   11361.60244626 -.00000044  00000-0  00000+0 0   500
2 36122 100.3900 059.2560 0007657 141.6384 218.5285 13.16291752 97686

Keplerian bulletins are transmitted twice weekly from W1AW.  The
next scheduled transmission of these data will be Friday, December
30, 2011, at 2330z on Baudot and BPSK31.
NNNN


Read previous mail | Read next mail


 16.12.2025 03:42:56lGo back Go up